Ephrata, WA

12:31 AM PDT on July 26, 2016 (GMT -0700)
Ephrata Municipal

Weather History for KEPH - November, 2012

Change the Weather History Date:

Saturday, November 24, 2012

  Actual Average Record
Temperature  
Mean Temperature 36 °F 34 °F  
Max Temperature 43 °F 41 °F 65 °F (1990)
Min Temperature 28 °F 26 °F -14 °F (2010)
Degree Days  
Heating Degree Days 29 31  
Month to date heating degree days 571 641  
Since 1 July heating degree days 1066 1222  
Cooling Degree Days 0 0  
Month to date cooling degree days 0 0  
Year to date cooling degree days 837 772  
Moisture  
Dew Point 33 °F    
Average Humidity 83    
Maximum Humidity 96    
Minimum Humidity 70    
Precipitation  
Precipitation 0.00 in 0.04 in 0.81 in (1983)
Month to date precipitation 1.00 0.82  
Year to date precipitation 6.86 6.37  
Sea Level Pressure  
Sea Level Pressure 30.14 in    
Wind  
Wind Speed 4 mph (North)    
Max Wind Speed 13 mph    
Max Gust Speed 14 mph    
Visibility 7 miles    
Events      
T = Trace of Precipitation, MM = Missing Value Source: NWS Daily Summary

Daily Weather History Graph

Daily Weather History Graph

Search for Another Location

Airport or City:

Trip Planner

Search our weather history database for the weather conditions in past years. The results will help you decide how hot, cold, wet, or windy it might be!

Date:

Astronomy

Nov. 24, 2012 Rise Set
Actual Time 7:15 AM PST 4:13 PM PST
Civil Twilight 6:41 AM PST 4:47 PM PST
Nautical Twilight 6:03 AM PST 5:25 PM PST
Astronomical Twilight 5:27 AM PST 6:02 PM PST
Moon 2:10 PM PST (11/24) 3:26 AM PST (11/24)
Length of Visible Light 10h 06m
Length of Day
8h 57m
Waxing Gibbous, 88% of the Moon is Illuminated
Nov 24
Waxing Gibbous
Nov 28
Full
Dec 6
Last Quarter
Dec 13
New
Dec 19
First Quarter

Hourly Weather History & Observations

Time (PST) Temp. Windchill Dew Point Humidity Pressure Visibility Wind Dir Wind Speed Gust Speed Precip Events Conditions
12:53 AM 37.0 °F 34.5 °F 35.1 °F 93% 30.07 in 3.0 mi NNE 3.5 mph - N/A   Clear
1:00 AM 37.4 °F 34.9 °F 35.6 °F 93% 30.04 in 3.0 mi NNE 3.5 mph - N/A   Scattered Clouds
1:18 AM 37.4 °F 33.8 °F 35.6 °F 93% 30.04 in 2.5 mi NNE 4.6 mph - N/A   Mostly Cloudy
1:40 AM 37.4 °F 34.9 °F 35.6 °F 93% 30.05 in 3.0 mi North 3.5 mph - N/A   Overcast
1:53 AM 37.0 °F 33.3 °F 36.0 °F 96% 30.08 in 3.0 mi North 4.6 mph - N/A   Overcast
2:15 AM 37.4 °F 33.8 °F 35.6 °F 93% 30.05 in 3.0 mi NNE 4.6 mph - N/A   Scattered Clouds
2:53 AM 37.0 °F 32.4 °F 35.1 °F 93% 30.10 in 5.0 mi North 5.8 mph - N/A   Partly Cloudy
4:37 AM 35.6 °F 30.7 °F 33.8 °F 93% 30.08 in 8.0 mi NNW 5.8 mph - N/A   Partly Cloudy
4:53 AM 35.1 °F - 34.0 °F 96% 30.12 in 7.0 mi Calm Calm - N/A   Partly Cloudy
5:53 AM 34.0 °F 31.0 °F 32.0 °F 92% 30.14 in 7.0 mi North 3.5 mph - N/A   Clear
6:53 AM 34.0 °F 28.0 °F 30.9 °F 89% 30.15 in 10.0 mi North 6.9 mph - N/A   Clear
7:53 AM 34.0 °F - 32.0 °F 92% 30.19 in 10.0 mi Calm Calm - N/A   Clear
8:53 AM 36.0 °F 32.1 °F 33.1 °F 89% 30.20 in 10.0 mi WNW 4.6 mph - N/A   Mostly Cloudy
9:53 AM 39.0 °F 34.0 °F 33.1 °F 79% 30.21 in 10.0 mi WNW 6.9 mph - N/A   Partly Cloudy
10:53 AM 39.0 °F 36.8 °F 36.0 °F 89% 30.20 in 10.0 mi WSW 3.5 mph - N/A   Clear
11:24 AM 39.2 °F 35.9 °F 37.4 °F 93% 30.17 in 10.0 mi ESE 4.6 mph - N/A   Partly Cloudy
11:53 AM 41.0 °F 39.0 °F 37.0 °F 86% 30.19 in 10.0 mi Variable 3.5 mph - N/A   Partly Cloudy
12:53 PM 43.0 °F - 36.0 °F 76% 30.18 in 10.0 mi Calm Calm - N/A   Clear
1:53 PM 42.1 °F 40.2 °F 37.0 °F 82% 30.17 in 10.0 mi Variable 3.5 mph - N/A   Clear
2:53 PM 41.0 °F 39.0 °F 37.0 °F 86% 30.17 in 10.0 mi South 3.5 mph - N/A   Clear
3:53 PM 39.0 °F 35.7 °F 36.0 °F 89% 30.17 in 10.0 mi SSW 4.6 mph - N/A   Clear
4:53 PM 35.1 °F - 34.0 °F 96% 30.18 in 6.0 mi Calm Calm - N/A   Clear
5:49 PM 33.8 °F - 30.2 °F 87% 30.13 in 2.5 mi Calm Calm - N/A   Clear
5:53 PM 34.0 °F - 32.0 °F 92% 30.17 in 3.0 mi Calm Calm - N/A   Clear
5:56 PM 33.8 °F - 33.8 °F 100% 30.13 in 1.5 mi Calm Calm - N/A   Clear
5:59 PM 33.8 °F - 33.8 °F 100% 30.13 in 0.8 mi Calm Calm - N/A   Mist
6:12 PM 32.0 °F 27.5 °F 30.2 °F 93% 30.13 in 2.0 mi West 4.6 mph - N/A   Clear
6:20 PM 32.0 °F - 30.2 °F 93% 30.13 in 5.0 mi Calm Calm - N/A   Clear
6:53 PM 32.0 °F 26.4 °F 30.0 °F 92% 30.17 in 10.0 mi SW 5.8 mph - N/A   Clear
7:53 PM 36.0 °F 33.3 °F 28.0 °F 73% 30.16 in 10.0 mi NW 3.5 mph - N/A   Clear
8:53 PM 32.0 °F 28.7 °F 27.0 °F 82% 30.17 in 10.0 mi North 3.5 mph - N/A   Clear
9:53 PM 35.1 °F - 26.1 °F 70% 30.16 in 10.0 mi Calm Calm - N/A   Clear
10:53 PM 30.0 °F 26.5 °F 27.0 °F 88% 30.17 in 10.0 mi East 3.5 mph - N/A   Clear
11:53 PM 30.0 °F 25.2 °F 27.0 °F 88% 30.17 in 10.0 mi North 4.6 mph - N/A   Clear